Regional Weather Roundup
Issued by NWS Newport/Morehead, NC

Current Version | Previous Version | Graphics & Text | Print | Product List | Glossary Off
Versions: 1 2 3 4 5 6 7 8 9 10 11 12 13 14 15 16 17 18 19 20 21 22 23 24 25 26 27 28 29 30 31 32 33 34 35 36 37 38 39 40 41 42 43 44 45 46 47 48 49 50

234
ASUS42 KMHX 120813
RWRMHX
WEATHER ROUNDUP FOR EASTERN NORTH CAROLINA
NATIONAL WEATHER SERVICE NEWPORT/MOREHEAD CITY NC
300 AM EST FRI FEB 12 2016

NOTE: "FAIR" INDICATES FEW OR NO CLOUDS BELOW 12,000 FEET
WITH NO SIGNIFICANT WEATHER AND/OR OBSTRUCTIONS TO VISIBILITY

NCZ015>017-031-032-045>047-102-103-120900-
NORTH COAST

CITY           SKY/WX    TMP DP  RH WIND       PRES   REMARKS
EDENTON        CLEAR     27  12  54 CALM      30.34R
ELIZABETH CITY CLEAR     27  14  58 N13       30.33S WCI  16
KITTY HAWK     SUNNY     31  16  52 CALM      30.29S
MANTEO         CLEAR     31  17  55 N6        30.31S

$$

NCZ045>047-081-094-103-104-120900-
CENTRAL COAST

CITY           SKY/WX    TMP DP  RH WIND       PRES   REMARKS
FRISCO         CLEAR     34  14  43 N5        30.31S
SWANQUARTER      N/A     25 N/A N/A N3        30.30S

$$

NCZ095-097-098-100-101-120900-
SOUTHERN COAST

CITY           SKY/WX    TMP DP  RH WIND       PRES   REMARKS
BEAUFORT       CLEAR     31  18  58 NE6       30.29F
CEDAR ISLAND     N/A     36 N/A N/A N9G16     30.36S
JACKSONVILLE   CLEAR     30  19  63 N6        30.29F
PINEY ISLAND   SUNNY    N/A N/A N/A NE8       30.30S
WILMINGTON     CLOUDY    33  24  69 NE9       30.25F


$$

NCZ011>013-027>030-043-044-078>080-089-090>093-098-120900-
COASTAL PLAIN

CITY           SKY/WX    TMP DP  RH WIND       PRES   REMARKS
AHOSKIE        CLEAR     23   9  55 N5        30.34S
CLINTON        CLEAR     31  17  56 NE5       30.30S
ELIZABETHTOWN  PTCLDY    29  24  81 CALM      30.26F
GOLDSBORO      CLEAR     28  10  47 NE5       30.29S
GREENVILLE     CLOUDY    27  18  69 CALM      30.33R
HAVELOCK       CLEAR     30  17  58 NE9       30.30F
KENANSVILLE    CLEAR     27  17  66 CALM      30.31F
KINSTON        CLEAR     27  17  66 N6        30.31F
NEW BERN       CLEAR     28  13  53 NE7       30.31F
RICHLANDS      CLEAR     25  16  68 N6        30.29F
ROCKY MOUNT    CLOUDY    25  13  60 NE8       30.32S
WASHINGTON     MOCLDY    25  17  71 CALM      30.32S
WHITEVILLE     PTCLDY    33  26  74 NE3       30.24F

$$

AMZ130-135-150-152-154-156-158-170-250-252-270-ANZ085-086-088-633-658-670-120900-
MARINE OBSERVATIONS

STATION/POSITION TIME  TEMP    WIND        PRES    WAVE   SWELL
                       AIR SEA DIR/SP/G            HT/PER HT/PER
                 (UTC) (F)     (DEG/KT/KT) (MB)    (FT/S) (FT/S)
CHESAPEAKE LIGHT 0800   28     350/ 15/ 17 1027.3
64 E VA BEACH    0750   31 48  340/ 14/ 19 1026.2    5/ 7   3/ 7
DUCK             0700   33      10/ 12/ 14 1025.8
2 E DUCK         0711      43                N/A     2/ 3
OREGON INLET     0700   31 40  310/  4/  6 1026.3
13E OREGON INLT  0800      45                N/A     3/ 5
HATTERAS CG      0700   36 46   10/ 11/ 12 1025.7
DIAMOND BUOY     0750   40 71   10/ 10/ 14 1026.2    3/ 8   3/ 8
CAPE LOOKOUT     NOT AVBL
BEAUFORT LAB     0700   33 45   30/  4/  5 1024.9
30 SE NEW RVR IN 0708   46 59              1025.0
30 SE NEW RVR IN 0725      59                N/A     3/ 7
27 SE WRIGHTSVLE 0708   48 62  110/  4/  8 1023.0
5 SE WRIGHTSVLE  NOT AVBL
225 S CAPE HAT   0750   55 68  350/  8/ 16   N/A     6/ 8   5/ 8
41 SE CHARLESTON 0750   60 69  150/  8/ 10 1021.4    1/ 4   2/ 4

$$




USA.gov is the U.S. government's official web portal to all federal, state and local government web resources and services.